Home > Weather > Gurdaspur > Past weeks

Flag for India Past Weather in Gurdaspur, Punjab, India — Yesterday and Last 2 Weeks

Now
88 °F

Fog.


Feels Like: 112 °F
Forecast: 78 / 94 °F
Wind: 3 mph from North

Location: Amritsar Airport

Current Time: Jul 29, 2016 at 9:39:39 PM

Latest Report: Jul 29, 2016 at 9:00 PM


Visibility: 2 mi

Pressure: 29.53 "Hg

Humidity: 89%

Dew Point: 84 °F

Location of GurdaspurLocation

Past Weather in Gurdaspur — Graph

°F

Gurdaspur Temperature Yesterday

Maximum temperature yesterday: 91 °F (at 1:30 PM)
Minimum temperature yesterday: 77 °F (at 1:00 AM)
Average temperature yesterday: 84 °F

High & Low Weather Summary for the Past Weeks

 TemperatureHumidityPressure
High99 °F (Jul 21, 1:00 PM)100% (Jul 14, 11:30 PM)29.74 "Hg (Jul 14, 11:30 PM)
Low73 °F (Jul 17, 5:00 AM)50% (Jul 21, 3:30 PM)29.42 "Hg (Jul 15, 4:30 PM)
Average87 °F89%29.57 "Hg
* Reported Jul 14 8:00 PM — Jul 29 8:00 PM, Gurdaspur, Weather by CustomWeather, © 2016

Note: Actual official high and low records may vary slightly from our data, if they occured in-between our weather recording intervals... More about our weather records

Advertising

Gurdaspur Weather History for the Previous 24 Hours

Scroll right to see more
 ConditionsComfort  
Time TempWeatherWind HumidityBarometerVisibility
8:00 PM
Fri, Jul 29
90 °FFog.2 mph79%29.53 "Hg3 mi
7:30 PM90 °FFog.No wind79%29.50 "Hg3 mi
7:00 PM90 °FScattered clouds.2 mph75%29.50 "Hg3 mi
6:30 PM91 °FScattered clouds.2 mph67%29.50 "Hg3 mi
6:00 PM91 °FScattered clouds.2 mph67%29.50 "Hg3 mi
5:30 PM93 °FScattered clouds.2 mph63%29.50 "Hg3 mi
5:00 PM93 °FScattered clouds.2 mph63%29.50 "Hg3 mi
4:30 PM93 °FScattered clouds.3 mph63%29.50 "Hg3 mi
4:00 PM93 °FScattered clouds.5 mph63%29.50 "Hg3 mi
3:30 PM93 °FScattered clouds.5 mph63%29.53 "Hg3 mi
3:00 PM93 °FScattered clouds.3 mph63%29.56 "Hg3 mi
2:30 PM93 °FScattered clouds.2 mph63%29.56 "Hg3 mi
2:00 PM93 °FScattered clouds.6 mph63%29.56 "Hg3 mi
1:30 PM93 °FScattered clouds.3 mph67%29.59 "Hg2 mi
1:00 PM91 °FScattered clouds.5 mph71%29.59 "Hg2 mi
12:30 PM90 °FFog.5 mph79%29.62 "Hg2 mi
12:00 PM91 °FFog.5 mph75%29.62 "Hg1 mi
11:30 AM90 °FFog.5 mph79%29.62 "Hg1 mi
11:00 AM90 °FFog.7 mph89%29.62 "Hg1 mi
10:30 AM88 °FFog.3 mph100%29.62 "Hg1 mi
10:00 AM86 °FFog.3 mph100%29.62 "Hg1 mi
9:30 AM86 °FFog.2 mph100%29.62 "Hg1 mi
9:00 AM86 °FFog.No wind100%29.62 "Hg1 mi
8:30 AM84 °FFog.No wind100%29.62 "Hg1 mi
8:00 AM82 °FFog.2 mph100%29.59 "Hg1 mi
7:30 AM82 °FFog.No wind100%29.59 "Hg1 mi
7:00 AM82 °FFog.No wind100%29.59 "Hg1 mi
6:30 AM81 °FFog.No wind100%29.59 "Hg1 mi
6:00 AM81 °FFog.No wind100%29.59 "Hg1 mi
5:30 AM81 °FFog.No wind100%29.59 "Hg1 mi
4:00 AM82 °FFog.No wind100%29.59 "Hg2 mi
3:00 AM82 °FFog.No wind100%29.59 "Hg2 mi
2:30 AM82 °FFog.No wind100%29.59 "Hg2 mi
2:00 AM82 °FFog.No wind100%29.59 "Hg2 mi
1:30 AM82 °FFog.No wind100%29.59 "Hg2 mi
1:00 AM82 °FFog.No wind100%29.59 "Hg2 mi
11:30 PM
Thu, Jul 28
84 °FFog.No wind100%29.62 "Hg2 mi
11:00 PM84 °FFog.No wind100%29.62 "Hg2 mi
10:30 PM84 °FFog.No wind100%29.62 "Hg2 mi
10:00 PM84 °FFog.No wind100%29.62 "Hg2 mi
9:30 PM84 °FFog.No wind94%29.59 "Hg3 mi
9:00 PM86 °FFog.No wind89%29.59 "Hg3 mi
Weather by CustomWeather, © 2016

See weather overviewHow to use our weather pages